JBU101 KJFK-KMIA

Flight info

Callsign JBU101
Flight time 2h 31m
Altitude 36000
Route WAVEY EMJAY Q167 KALDA Q101 SKARP Y313 HOAGG BNFSH2
Aircraft A320/M-SDE3FGHIRWY/LB1

Departure

Time 2026-05-08 22:10
Airport John F. Kennedy International Airport (KJFK)

Arrival

Time 2026-05-09 00:41
Airport Miami International Airport (KMIA)
Time Latitude Longitude Altitude Speed Heading
2026-05-08 21:30 40.64054 -73.79042 21 ft 0 kts 106°
2026-05-08 21:45 40.64054 -73.79043 20 ft 0 kts 106°
2026-05-08 21:45 40.64061 -73.79069 21 ft 4 kts 125°
2026-05-08 21:45 40.64080 -73.79091 23 ft 4 kts 163°
2026-05-08 21:46 40.64105 -73.79092 21 ft 4 kts 203°
2026-05-08 21:46 40.64118 -73.79082 22 ft 0 kts 224°
2026-05-08 22:01 40.64117 -73.79084 22 ft 3 kts 224°
2026-05-08 22:01 40.64069 -73.79143 20 ft 11 kts 223°
2026-05-08 22:01 40.64037 -73.79184 23 ft 0 kts 224°
2026-05-08 22:01 40.64000 -73.79230 21 ft 23 kts 224°
2026-05-08 22:02 40.63896 -73.79306 20 ft 14 kts 142°
2026-05-08 22:02 40.63842 -73.79194 21 ft 15 kts 120°
2026-05-08 22:02 40.63785 -73.79067 21 ft 17 kts 120°
2026-05-08 22:02 40.63722 -73.78928 21 ft 18 kts 121°
2026-05-08 22:03 40.63654 -73.78782 22 ft 19 kts 121°
2026-05-08 22:03 40.63582 -73.78623 22 ft 21 kts 120°
2026-05-08 22:03 40.63506 -73.78453 22 ft 22 kts 120°
2026-05-08 22:03 40.63423 -73.78270 22 ft 24 kts 121°
2026-05-08 22:04 40.63340 -73.78075 21 ft 25 kts 111°
2026-05-08 22:04 40.63341 -73.77900 21 ft 10 kts 84°
2026-05-08 22:04 40.63341 -73.77893 21 ft 1 kts 86°
2026-05-08 22:04 40.63340 -73.77882 21 ft 2 kts 97°
2026-05-08 22:05 40.63337 -73.77866 22 ft 2 kts 106°
2026-05-08 22:05 40.63296 -73.77777 24 ft 28 kts 123°
2026-05-08 22:05 40.63191 -73.77547 22 ft 31 kts 120°
2026-05-08 22:05 40.63081 -73.77302 21 ft 31 kts 121°
2026-05-08 22:06 40.63003 -73.77129 21 ft 7 kts 120°
2026-05-08 22:06 40.62998 -73.77119 21 ft 1 kts 122°
2026-05-08 22:06 40.62985 -73.77096 22 ft 4 kts 131°
2026-05-08 22:06 40.62955 -73.77084 21 ft 5 kts 186°
2026-05-08 22:07 40.62920 -73.77107 22 ft 6 kts 210°
2026-05-08 22:07 40.62889 -73.77132 22 ft 0 kts 211°
2026-05-08 22:07 40.62887 -73.77134 22 ft 0 kts 211°
2026-05-08 22:08 40.62877 -73.77142 22 ft 10 kts 211°
2026-05-08 22:08 40.62831 -73.77188 25 ft 13 kts 236°
2026-05-08 22:09 40.62855 -73.77301 23 ft 14 kts 301°
2026-05-08 22:09 40.62973 -73.77556 24 ft 70 kts 301°
2026-05-08 22:09 40.63538 -73.78790 23 ft 159 kts 301°
2026-05-08 22:09 40.64176 -73.80153 465 ft 178 kts 303°
2026-05-08 22:10 40.64618 -73.81093 903 ft 189 kts 302°
2026-05-08 22:10 40.65325 -73.82650 1215 ft 209 kts 302°
2026-05-08 22:10 40.66098 -73.84373 1507 ft 230 kts 301°
2026-05-08 22:10 40.66936 -73.86243 2041 ft 241 kts 301°
2026-05-08 22:11 40.67819 -73.88213 2525 ft 259 kts 301°
2026-05-08 22:11 40.68755 -73.90294 3285 ft 266 kts 301°
2026-05-08 22:11 40.69624 -73.92463 4114 ft 271 kts 288°
2026-05-08 22:11 40.69823 -73.94949 4715 ft 278 kts 262°
2026-05-08 22:12 40.69178 -73.97323 4880 ft 276 kts 235°
2026-05-08 22:12 40.67795 -73.99035 4923 ft 274 kts 207°
2026-05-08 22:12 40.66004 -73.99701 4926 ft 272 kts 179°
2026-05-08 22:12 40.64157 -73.99254 4929 ft 271 kts 160°
2026-05-08 22:13 40.62380 -73.98394 4928 ft 272 kts 158°
2026-05-08 22:13 40.60620 -73.97491 4928 ft 272 kts 158°
2026-05-08 22:13 40.58862 -73.96551 5136 ft 275 kts 152°
2026-05-08 22:13 40.57403 -73.94969 5992 ft 274 kts 124°
2026-05-08 22:14 40.56554 -73.92714 6661 ft 278 kts 109°
2026-05-08 22:14 40.55922 -73.90311 6871 ft 278 kts 108°
2026-05-08 22:14 40.55321 -73.87905 6927 ft 277 kts 107°
2026-05-08 22:14 40.54726 -73.85498 6929 ft 276 kts 107°
2026-05-08 22:15 40.54133 -73.83095 6930 ft 276 kts 107°
2026-05-08 22:15 40.53547 -73.80716 6928 ft 276 kts 107°
2026-05-08 22:15 40.52956 -73.78312 6921 ft 276 kts 107°
2026-05-08 22:15 40.52364 -73.75900 7091 ft 279 kts 107°
2026-05-08 22:16 40.51767 -73.73465 7926 ft 280 kts 107°
2026-05-08 22:16 40.51168 -73.71017 8695 ft 283 kts 107°
2026-05-08 22:16 40.50565 -73.68544 9422 ft 286 kts 107°
2026-05-08 22:16 40.49954 -73.66035 10119 ft 291 kts 107°
2026-05-08 22:17 40.49314 -73.63399 10298 ft 314 kts 107°
2026-05-08 22:17 40.48630 -73.60571 10475 ft 334 kts 107°
2026-05-08 22:17 40.47729 -73.57760 10965 ft 342 kts 122°
2026-05-08 22:17 40.46134 -73.55427 11565 ft 347 kts 143°
2026-05-08 22:18 40.44035 -73.53748 11884 ft 350 kts 150°
2026-05-08 22:18 40.41889 -73.52219 11920 ft 350 kts 152°
2026-05-08 22:18 40.39767 -73.50750 11922 ft 350 kts 152°
2026-05-08 22:18 40.37608 -73.49270 11919 ft 350 kts 152°
2026-05-08 22:19 40.35454 -73.47791 11918 ft 350 kts 152°
2026-05-08 22:19 40.33302 -73.46306 11919 ft 350 kts 152°
2026-05-08 22:19 40.31149 -73.44812 11920 ft 350 kts 152°
2026-05-08 22:19 40.29000 -73.43316 11924 ft 350 kts 151°
2026-05-08 22:20 40.26840 -73.41808 12229 ft 353 kts 151°
2026-05-08 22:20 40.24670 -73.40293 12906 ft 355 kts 151°
2026-05-08 22:20 40.22422 -73.38930 13507 ft 358 kts 163°
2026-05-08 22:20 40.19938 -73.38567 14071 ft 362 kts 184°
2026-05-08 22:21 40.17488 -73.39351 14641 ft 367 kts 204°
2026-05-08 22:21 40.15276 -73.41035 15191 ft 370 kts 212°
2026-05-08 22:21 40.13094 -73.42852 15743 ft 373 kts 212°
2026-05-08 22:21 40.10926 -73.44660 16268 ft 376 kts 212°
2026-05-08 22:22 40.08706 -73.46510 16802 ft 379 kts 212°
2026-05-08 22:22 40.06476 -73.48361 17333 ft 381 kts 212°
2026-05-08 22:22 40.04225 -73.50223 17855 ft 384 kts 212°
2026-05-08 22:22 40.01951 -73.52098 18381 ft 387 kts 212°
2026-05-08 22:23 39.99663 -73.53984 18906 ft 391 kts 212°
2026-05-08 22:23 39.97354 -73.55890 19432 ft 394 kts 212°
2026-05-08 22:23 39.95026 -73.57811 19956 ft 397 kts 212°
2026-05-08 22:23 39.92681 -73.59743 20467 ft 400 kts 212°
2026-05-08 22:24 39.90342 -73.61665 20955 ft 403 kts 212°
2026-05-08 22:24 39.87957 -73.63621 21428 ft 406 kts 212°
2026-05-08 22:24 39.85557 -73.65591 21881 ft 409 kts 212°
2026-05-08 22:24 39.83145 -73.67571 22317 ft 411 kts 212°
2026-05-08 22:25 39.80712 -73.69567 22732 ft 414 kts 212°
2026-05-08 22:25 39.78272 -73.71569 22889 ft 415 kts 212°
2026-05-08 22:25 39.75825 -73.73575 22923 ft 415 kts 212°
2026-05-08 22:25 39.73377 -73.75580 22920 ft 415 kts 212°
2026-05-08 22:26 39.70934 -73.77576 22920 ft 415 kts 212°
2026-05-08 22:26 39.68518 -73.79547 22920 ft 415 kts 212°
2026-05-08 22:26 39.66070 -73.81546 22920 ft 415 kts 212°
2026-05-08 22:26 39.63622 -73.83544 22920 ft 415 kts 212°
2026-05-08 22:27 39.61178 -73.85534 22920 ft 415 kts 212°
2026-05-08 22:27 39.58732 -73.87525 22920 ft 415 kts 212°
2026-05-08 22:27 39.56284 -73.89519 22920 ft 415 kts 212°
2026-05-08 22:27 39.53839 -73.91507 22921 ft 415 kts 212°
2026-05-08 22:28 39.51390 -73.93495 22920 ft 415 kts 212°
2026-05-08 22:28 39.48943 -73.95477 22920 ft 415 kts 212°
2026-05-08 22:28 39.46524 -73.97437 22921 ft 415 kts 212°
2026-05-08 22:28 39.44074 -73.99422 22920 ft 415 kts 212°
2026-05-08 22:29 39.41631 -74.01424 22920 ft 415 kts 214°
2026-05-08 22:29 39.39382 -74.03750 22921 ft 415 kts 220°
2026-05-08 22:29 39.37179 -74.06174 22920 ft 415 kts 220°
2026-05-08 22:29 39.34972 -74.08591 22920 ft 415 kts 220°
2026-05-08 22:30 39.32760 -74.11001 22921 ft 415 kts 220°
2026-05-08 22:30 39.30549 -74.13401 22921 ft 415 kts 220°
2026-05-08 22:30 39.28364 -74.15772 22921 ft 415 kts 220°
2026-05-08 22:30 39.26147 -74.18180 23016 ft 417 kts 220°
2026-05-08 22:31 39.23921 -74.20599 23481 ft 419 kts 220°
2026-05-08 22:31 39.21684 -74.23033 23898 ft 422 kts 220°
2026-05-08 22:31 39.19432 -74.25485 24289 ft 424 kts 220°
2026-05-08 22:31 39.17198 -74.27920 24661 ft 427 kts 220°
2026-05-08 22:32 39.14924 -74.30394 25023 ft 429 kts 220°
2026-05-08 22:32 39.12630 -74.32879 25369 ft 431 kts 219°
2026-05-08 22:32 39.10320 -74.35373 25716 ft 434 kts 219°
2026-05-08 22:32 39.08002 -74.37873 26043 ft 436 kts 219°
2026-05-08 22:33 39.05673 -74.40385 26377 ft 438 kts 219°
2026-05-08 22:33 39.03328 -74.42916 26701 ft 440 kts 220°
2026-05-08 22:33 39.00972 -74.45459 27020 ft 442 kts 219°
2026-05-08 22:33 38.98605 -74.48013 27335 ft 445 kts 220°
2026-05-08 22:34 38.96226 -74.50579 27650 ft 447 kts 219°
2026-05-08 22:34 38.93865 -74.53119 27946 ft 449 kts 220°
2026-05-08 22:34 38.91499 -74.55748 28243 ft 451 kts 221°
2026-05-08 22:34 38.89162 -74.58459 28533 ft 453 kts 222°
2026-05-08 22:35 38.86849 -74.61211 28885 ft 453 kts 223°
2026-05-08 22:35 38.84547 -74.63977 29299 ft 452 kts 223°
2026-05-08 22:35 38.82247 -74.66730 29705 ft 451 kts 223°
2026-05-08 22:35 38.79939 -74.69462 30102 ft 450 kts 222°
2026-05-08 22:36 38.77626 -74.72173 30491 ft 450 kts 222°
2026-05-08 22:36 38.75345 -74.74829 30867 ft 449 kts 221°
2026-05-08 22:36 38.72993 -74.77464 31247 ft 448 kts 220°
2026-05-08 22:36 38.70594 -74.80004 31620 ft 447 kts 218°
2026-05-08 22:37 38.68164 -74.82485 31992 ft 446 kts 218°
2026-05-08 22:37 38.65725 -74.84950 32363 ft 446 kts 218°
2026-05-08 22:37 38.63296 -74.87411 32724 ft 445 kts 218°
2026-05-08 22:37 38.60875 -74.89885 33095 ft 444 kts 218°
2026-05-08 22:38 38.58463 -74.92375 33462 ft 444 kts 219°
2026-05-08 22:38 38.56067 -74.94862 33811 ft 443 kts 219°
2026-05-08 22:38 38.53675 -74.97349 34145 ft 442 kts 219°
2026-05-08 22:38 38.51302 -74.99849 34438 ft 442 kts 220°
2026-05-08 22:39 38.48995 -75.02379 34717 ft 442 kts 221°
2026-05-08 22:39 38.46686 -75.04973 35002 ft 442 kts 220°
2026-05-08 22:39 38.44332 -75.07489 35282 ft 441 kts 218°
2026-05-08 22:39 38.41912 -75.09893 35547 ft 441 kts 217°
2026-05-08 22:40 38.39442 -75.12218 35802 ft 441 kts 216°
2026-05-08 22:40 38.36948 -75.14507 35906 ft 442 kts 215°
2026-05-08 22:40 38.34432 -75.16811 35922 ft 448 kts 216°
2026-05-08 22:41 38.29366 -75.21529 35921 ft 453 kts 216°
2026-05-08 22:41 38.24311 -75.26331 35921 ft 453 kts 216°
2026-05-08 22:42 38.19283 -75.31106 35920 ft 453 kts 216°
2026-05-08 22:42 38.14216 -75.35889 35921 ft 453 kts 216°
2026-05-08 22:43 38.09135 -75.40662 35924 ft 454 kts 216°
2026-05-08 22:43 38.04044 -75.45422 35928 ft 454 kts 215°
2026-05-08 22:44 37.98897 -75.49974 35928 ft 454 kts 214°
2026-05-08 22:44 37.93666 -75.54445 35928 ft 454 kts 213°
2026-05-08 22:45 37.88411 -75.58883 35929 ft 453 kts 209°
2026-05-08 22:45 37.82531 -75.61655 35927 ft 451 kts 189°
2026-05-08 22:46 37.76275 -75.61836 35921 ft 450 kts 175°
2026-05-08 22:46 37.70059 -75.61213 35917 ft 451 kts 178°
2026-05-08 22:47 37.63828 -75.62056 35917 ft 451 kts 189°
2026-05-08 22:47 37.57637 -75.63411 35918 ft 452 kts 189°
2026-05-08 22:48 37.51434 -75.64750 35921 ft 452 kts 189°
2026-05-08 22:48 37.45261 -75.66070 35923 ft 452 kts 189°
2026-05-08 22:49 37.39052 -75.67395 35925 ft 452 kts 189°
2026-05-08 22:49 37.29735 -75.69400 35927 ft 452 kts 189°
2026-05-08 22:50 37.23531 -75.70736 35928 ft 452 kts 189°
2026-05-08 22:50 37.17319 -75.72066 35930 ft 452 kts 189°
2026-05-08 22:51 37.11061 -75.73406 35929 ft 452 kts 189°
2026-05-08 22:51 37.05041 -75.75246 35927 ft 452 kts 202°
2026-05-08 22:52 36.99456 -75.78898 35927 ft 453 kts 209°
2026-05-08 22:52 36.93949 -75.82736 35924 ft 453 kts 208°
2026-05-08 22:53 36.88437 -75.86566 35924 ft 453 kts 208°
2026-05-08 22:53 36.82911 -75.90382 35925 ft 453 kts 208°
2026-05-08 22:54 36.77430 -75.94163 35926 ft 453 kts 208°
2026-05-08 22:54 36.71904 -75.97963 35927 ft 453 kts 208°
2026-05-08 22:55 36.66373 -76.01766 35927 ft 453 kts 208°
2026-05-08 22:55 36.60846 -76.05560 35927 ft 453 kts 208°
2026-05-08 22:56 36.56259 -76.08708 35928 ft 453 kts 208°
2026-05-08 22:56 36.49834 -76.13110 35928 ft 453 kts 208°
2026-05-08 22:57 36.45233 -76.16253 35927 ft 453 kts 208°
2026-05-08 22:57 36.39704 -76.20036 35927 ft 453 kts 208°
2026-05-08 22:58 36.34171 -76.23818 35927 ft 453 kts 208°
2026-05-08 22:58 36.28632 -76.27582 35928 ft 453 kts 208°
2026-05-08 22:59 36.23134 -76.31313 35927 ft 453 kts 208°
2026-05-08 22:59 36.17604 -76.35061 35928 ft 453 kts 208°
2026-05-08 23:00 36.12066 -76.38809 35927 ft 453 kts 208°
2026-05-08 23:00 36.06526 -76.42561 35926 ft 453 kts 208°
2026-05-08 23:01 36.01030 -76.46273 35926 ft 453 kts 208°
2026-05-08 23:01 35.95490 -76.50000 35926 ft 453 kts 208°
2026-05-08 23:02 35.89946 -76.53719 35927 ft 453 kts 208°
2026-05-08 23:02 35.84346 -76.57318 35926 ft 453 kts 206°
2026-05-08 23:03 35.78697 -76.60757 35926 ft 453 kts 206°
2026-05-08 23:03 35.73038 -76.64189 35925 ft 453 kts 206°
2026-05-08 23:04 35.67430 -76.67628 35927 ft 453 kts 206°
2026-05-08 23:04 35.61779 -76.71105 35925 ft 453 kts 206°
2026-05-08 23:05 35.56136 -76.74569 35925 ft 453 kts 206°
2026-05-08 23:05 35.50526 -76.78013 35925 ft 453 kts 206°
2026-05-08 23:06 35.44884 -76.81469 35926 ft 453 kts 206°
2026-05-08 23:06 35.39236 -76.84913 35925 ft 453 kts 206°
2026-05-08 23:07 35.33594 -76.88348 35924 ft 453 kts 206°
2026-05-08 23:07 35.27941 -76.91790 35924 ft 453 kts 206°
2026-05-08 23:08 35.22337 -76.95203 35925 ft 453 kts 206°
2026-05-08 23:08 35.16687 -76.98728 35924 ft 453 kts 207°
2026-05-08 23:09 35.11120 -77.02252 35924 ft 453 kts 207°
2026-05-08 23:09 35.05506 -77.05778 35924 ft 453 kts 207°
2026-05-08 23:10 34.99888 -77.09283 35923 ft 453 kts 207°
2026-05-08 23:10 34.94273 -77.12786 35923 ft 453 kts 206°
2026-05-08 23:11 34.88691 -77.16251 35923 ft 453 kts 207°
2026-05-08 23:11 34.83079 -77.19740 35923 ft 453 kts 207°
2026-05-08 23:12 34.77457 -77.23233 35923 ft 453 kts 206°
2026-05-08 23:12 34.71846 -77.26711 35922 ft 453 kts 206°
2026-05-08 23:13 34.66224 -77.30188 35922 ft 453 kts 206°
2026-05-08 23:13 34.60630 -77.33643 35924 ft 453 kts 206°
2026-05-08 23:14 34.55013 -77.37109 35922 ft 453 kts 206°
2026-05-08 23:14 34.49339 -77.40431 35924 ft 452 kts 199°
2026-05-08 23:15 34.43222 -77.42120 35919 ft 451 kts 188°
2026-05-08 23:15 34.37015 -77.43324 35917 ft 451 kts 188°
2026-05-08 23:16 34.30812 -77.44534 35917 ft 452 kts 189°
2026-05-08 23:16 34.24637 -77.45735 35917 ft 452 kts 188°
2026-05-08 23:17 34.18425 -77.46943 35918 ft 452 kts 188°
2026-05-08 23:17 34.12220 -77.48154 35919 ft 452 kts 189°
2026-05-08 23:18 34.06015 -77.49369 35919 ft 452 kts 189°
2026-05-08 23:18 33.99796 -77.50574 35919 ft 452 kts 188°
2026-05-08 23:19 33.93590 -77.51778 35920 ft 452 kts 188°
2026-05-08 23:19 33.87413 -77.52975 35920 ft 452 kts 188°
2026-05-08 23:20 33.81201 -77.54179 35920 ft 452 kts 188°
2026-05-08 23:20 33.74983 -77.55381 35919 ft 452 kts 188°
2026-05-08 23:21 33.68812 -77.56564 35919 ft 452 kts 188°
2026-05-08 23:21 33.62599 -77.57758 35919 ft 452 kts 188°
2026-05-08 23:22 33.56422 -77.59197 35918 ft 452 kts 196°
2026-05-08 23:22 33.50383 -77.61318 35917 ft 452 kts 196°
2026-05-08 23:23 33.44342 -77.63435 35917 ft 452 kts 196°
2026-05-08 23:23 33.38300 -77.65547 35917 ft 452 kts 196°
2026-05-08 23:24 33.32257 -77.67659 35918 ft 452 kts 196°
2026-05-08 23:24 33.26246 -77.69752 35918 ft 452 kts 196°
2026-05-08 23:25 33.20198 -77.71845 35918 ft 452 kts 196°
2026-05-08 23:25 33.14153 -77.73949 35919 ft 452 kts 196°
2026-05-08 23:26 33.08102 -77.76052 35919 ft 452 kts 196°
2026-05-08 23:26 33.02062 -77.78151 35919 ft 452 kts 196°
2026-05-08 23:27 32.96016 -77.80238 35920 ft 452 kts 195°
2026-05-08 23:27 32.89972 -77.82321 35920 ft 452 kts 196°
2026-05-08 23:28 32.83916 -77.84404 35920 ft 452 kts 195°
2026-05-08 23:28 32.77909 -77.86478 35920 ft 452 kts 196°
2026-05-08 23:29 32.71869 -77.88571 35921 ft 452 kts 195°
2026-05-08 23:29 32.65813 -77.90648 35921 ft 452 kts 195°
2026-05-08 23:30 32.59745 -77.92645 35921 ft 452 kts 194°
2026-05-08 23:30 32.53657 -77.94580 35921 ft 452 kts 194°
2026-05-08 23:31 32.47615 -77.96516 35921 ft 452 kts 195°
2026-05-08 23:31 32.41540 -77.98484 35922 ft 452 kts 195°
2026-05-08 23:32 32.35467 -78.00456 35922 ft 452 kts 195°
2026-05-08 23:32 32.29398 -78.02414 35922 ft 452 kts 195°
2026-05-08 23:33 32.23319 -78.04374 35922 ft 452 kts 195°
2026-05-08 23:33 32.17247 -78.06323 35922 ft 452 kts 195°
2026-05-08 23:34 32.11202 -78.08262 35923 ft 452 kts 195°
2026-05-08 23:34 32.05126 -78.10216 35923 ft 452 kts 195°
2026-05-08 23:35 31.99044 -78.12169 35923 ft 452 kts 195°
2026-05-08 23:35 31.93005 -78.14096 35923 ft 452 kts 195°
2026-05-08 23:36 31.86927 -78.16036 35923 ft 452 kts 195°
2026-05-08 23:36 31.80848 -78.17973 35924 ft 452 kts 195°
2026-05-08 23:37 31.74764 -78.19915 35924 ft 452 kts 195°
2026-05-08 23:37 31.68684 -78.21848 35924 ft 452 kts 194°
2026-05-08 23:38 31.62644 -78.23762 35924 ft 452 kts 195°
2026-05-08 23:38 31.56570 -78.25690 35924 ft 452 kts 195°
2026-05-08 23:39 31.50485 -78.27625 35924 ft 452 kts 195°
2026-05-08 23:39 31.44412 -78.29563 35925 ft 452 kts 195°
2026-05-08 23:40 31.38353 -78.31582 35925 ft 452 kts 196°
2026-05-08 23:40 31.32304 -78.33643 35925 ft 452 kts 196°
2026-05-08 23:41 31.26251 -78.35687 35925 ft 452 kts 195°
2026-05-08 23:41 31.20228 -78.37691 35925 ft 452 kts 195°
2026-05-08 23:42 31.14174 -78.39703 35925 ft 452 kts 195°
2026-05-08 23:42 31.08116 -78.41716 35925 ft 452 kts 195°
2026-05-08 23:43 31.02052 -78.43735 35926 ft 452 kts 195°
2026-05-08 23:43 30.95995 -78.45746 35926 ft 452 kts 195°
2026-05-08 23:44 30.89983 -78.47743 35926 ft 452 kts 195°
2026-05-08 23:44 30.83917 -78.49753 35926 ft 452 kts 195°
2026-05-08 23:45 30.78870 -78.51420 35926 ft 452 kts 195°
2026-05-08 23:45 30.72808 -78.53422 35926 ft 452 kts 195°
2026-05-08 23:46 30.66782 -78.55408 35927 ft 452 kts 195°
2026-05-08 23:46 30.60720 -78.57404 35927 ft 452 kts 195°
2026-05-08 23:47 30.54658 -78.59398 35927 ft 452 kts 195°
2026-05-08 23:47 30.48600 -78.61394 35927 ft 452 kts 195°
2026-05-08 23:48 30.42541 -78.63396 35927 ft 452 kts 195°
2026-05-08 23:48 30.36483 -78.65378 35927 ft 452 kts 195°
2026-05-08 23:49 30.30458 -78.67342 35929 ft 452 kts 195°
2026-05-08 23:49 30.24390 -78.69330 35928 ft 452 kts 195°
2026-05-08 23:50 30.18322 -78.71320 35928 ft 452 kts 195°
2026-05-08 23:50 30.12288 -78.73293 35928 ft 452 kts 195°
2026-05-08 23:51 30.06223 -78.75265 35928 ft 452 kts 195°
2026-05-08 23:51 30.00140 -78.77240 35928 ft 452 kts 195°
2026-05-08 23:52 29.94109 -78.79198 35928 ft 452 kts 195°
2026-05-08 23:52 29.88037 -78.81166 35928 ft 452 kts 195°
2026-05-08 23:53 29.81976 -78.83126 35928 ft 452 kts 195°
2026-05-08 23:53 29.75863 -78.84625 35928 ft 452 kts 186°
2026-05-08 23:54 29.69608 -78.85462 35927 ft 452 kts 186°
2026-05-08 23:55 29.60240 -78.86726 35927 ft 452 kts 186°
2026-05-08 23:55 29.53987 -78.87577 35927 ft 452 kts 186°
2026-05-08 23:56 29.47734 -78.88415 35928 ft 452 kts 186°
2026-05-08 23:56 29.41522 -78.89247 35928 ft 452 kts 186°
2026-05-08 23:57 29.35271 -78.90082 35929 ft 452 kts 186°
2026-05-08 23:57 29.29011 -78.90915 35929 ft 452 kts 186°
2026-05-08 23:58 29.22756 -78.91750 35929 ft 452 kts 186°
2026-05-08 23:58 29.16538 -78.92590 35931 ft 452 kts 186°
2026-05-08 23:59 29.10291 -78.93427 35930 ft 452 kts 186°
2026-05-08 23:59 29.04034 -78.94261 35930 ft 452 kts 186°
2026-05-09 00:00 28.97776 -78.95096 35930 ft 452 kts 186°
2026-05-09 00:00 28.91525 -78.95927 35930 ft 452 kts 186°
2026-05-09 00:01 28.85264 -78.96759 35930 ft 452 kts 186°
2026-05-09 00:01 28.79055 -78.97583 35931 ft 452 kts 186°
2026-05-09 00:02 28.72789 -78.98413 35931 ft 452 kts 186°
2026-05-09 00:02 28.66528 -78.99245 35931 ft 452 kts 186°
2026-05-09 00:03 28.60308 -79.00076 35931 ft 452 kts 186°
2026-05-09 00:03 28.54055 -79.00906 35931 ft 452 kts 186°
2026-05-09 00:04 28.47806 -79.01723 35826 ft 451 kts 186°
2026-05-09 00:04 28.44665 -79.02132 34977 ft 456 kts 186°
2026-05-09 00:04 28.41505 -79.02545 34334 ft 456 kts 186°
2026-05-09 00:04 28.38364 -79.02958 33791 ft 453 kts 186°
2026-05-09 00:05 28.35242 -79.03403 33278 ft 450 kts 190°
2026-05-09 00:05 28.32213 -79.04259 32785 ft 446 kts 198°
2026-05-09 00:05 28.29277 -79.05366 32286 ft 443 kts 198°
2026-05-09 00:05 28.26358 -79.06466 31794 ft 440 kts 198°
2026-05-09 00:06 28.23503 -79.07534 31306 ft 436 kts 198°
2026-05-09 00:06 28.20635 -79.08603 30813 ft 433 kts 198°
2026-05-09 00:06 28.17778 -79.09664 30320 ft 430 kts 198°
2026-05-09 00:06 28.14950 -79.10716 29832 ft 426 kts 198°
2026-05-09 00:07 28.12133 -79.11766 29357 ft 423 kts 198°
2026-05-09 00:07 28.09348 -79.12802 28881 ft 420 kts 198°
2026-05-09 00:07 28.06583 -79.13827 28408 ft 417 kts 198°
2026-05-09 00:07 28.03833 -79.14847 27944 ft 414 kts 198°
2026-05-09 00:08 28.01108 -79.15858 27489 ft 411 kts 198°
2026-05-09 00:08 27.98402 -79.16860 27046 ft 408 kts 198°
2026-05-09 00:08 27.95712 -79.17854 26611 ft 405 kts 198°
2026-05-09 00:08 27.93042 -79.18845 26194 ft 402 kts 198°
2026-05-09 00:09 27.90391 -79.19831 25774 ft 400 kts 198°
2026-05-09 00:09 27.87752 -79.20812 25371 ft 397 kts 198°
2026-05-09 00:09 27.85163 -79.21770 24982 ft 395 kts 198°
2026-05-09 00:09 27.82556 -79.22737 24587 ft 392 kts 198°
2026-05-09 00:10 27.79964 -79.23695 24190 ft 390 kts 198°
2026-05-09 00:10 27.77393 -79.24642 23784 ft 387 kts 198°
2026-05-09 00:10 27.74830 -79.25589 23377 ft 385 kts 198°
2026-05-09 00:10 27.72322 -79.26520 22968 ft 383 kts 198°
2026-05-09 00:11 27.69798 -79.27459 22549 ft 380 kts 198°
2026-05-09 00:11 27.67296 -79.28390 22123 ft 378 kts 198°
2026-05-09 00:11 27.64804 -79.29310 21696 ft 375 kts 198°
2026-05-09 00:11 27.62327 -79.30220 21261 ft 372 kts 198°
2026-05-09 00:12 27.59867 -79.31122 20821 ft 370 kts 197°
2026-05-09 00:12 27.57428 -79.32017 20377 ft 367 kts 198°
2026-05-09 00:12 27.55007 -79.32909 19941 ft 365 kts 198°
2026-05-09 00:12 27.52598 -79.33798 19508 ft 362 kts 198°
2026-05-09 00:13 27.50205 -79.34681 19065 ft 360 kts 198°
2026-05-09 00:13 27.47832 -79.35554 18631 ft 358 kts 198°
2026-05-09 00:13 27.45500 -79.36410 18210 ft 355 kts 198°
2026-05-09 00:13 27.43153 -79.37270 17767 ft 353 kts 197°
2026-05-09 00:14 27.40826 -79.38123 17340 ft 351 kts 198°
2026-05-09 00:14 27.38510 -79.38973 16988 ft 347 kts 198°
2026-05-09 00:14 27.36210 -79.39818 16927 ft 348 kts 198°
2026-05-09 00:14 27.33896 -79.40669 16939 ft 350 kts 198°
2026-05-09 00:15 27.31578 -79.41520 16940 ft 350 kts 198°
2026-05-09 00:15 27.29264 -79.42367 16940 ft 350 kts 197°
2026-05-09 00:15 27.26948 -79.43211 16940 ft 350 kts 197°
2026-05-09 00:15 27.24659 -79.44047 16940 ft 350 kts 197°
2026-05-09 00:16 27.22340 -79.44896 16940 ft 350 kts 198°
2026-05-09 00:16 27.20021 -79.45747 16940 ft 350 kts 198°
2026-05-09 00:16 27.17707 -79.46596 16940 ft 350 kts 198°
2026-05-09 00:16 27.15393 -79.47441 16940 ft 350 kts 197°
2026-05-09 00:17 27.13073 -79.48287 16940 ft 350 kts 197°
2026-05-09 00:17 27.10753 -79.49135 16940 ft 350 kts 199°
2026-05-09 00:17 27.08591 -79.50368 16936 ft 350 kts 216°
2026-05-09 00:17 27.06680 -79.52054 16683 ft 348 kts 218°
2026-05-09 00:18 27.04805 -79.53755 16231 ft 346 kts 219°
2026-05-09 00:18 27.02947 -79.55453 15801 ft 344 kts 219°
2026-05-09 00:18 27.01098 -79.57145 15380 ft 341 kts 219°
2026-05-09 00:18 26.99260 -79.58817 14960 ft 339 kts 218°
2026-05-09 00:19 26.97426 -79.60475 14540 ft 337 kts 218°
2026-05-09 00:19 26.95625 -79.62106 14128 ft 335 kts 218°
2026-05-09 00:19 26.93815 -79.63741 13709 ft 333 kts 218°
2026-05-09 00:19 26.92013 -79.65368 13302 ft 331 kts 218°
2026-05-09 00:20 26.90226 -79.66981 12896 ft 329 kts 218°
2026-05-09 00:20 26.88450 -79.68592 12491 ft 327 kts 218°
2026-05-09 00:20 26.86685 -79.70195 12083 ft 325 kts 218°
2026-05-09 00:20 26.84950 -79.71763 11687 ft 323 kts 218°
2026-05-09 00:21 26.83200 -79.73345 11289 ft 322 kts 218°
2026-05-09 00:21 26.81460 -79.74912 10894 ft 320 kts 218°
2026-05-09 00:21 26.79728 -79.76475 10499 ft 318 kts 218°
2026-05-09 00:21 26.78006 -79.78024 10107 ft 316 kts 218°
2026-05-09 00:22 26.76303 -79.79556 9918 ft 309 kts 218°
2026-05-09 00:22 26.74668 -79.81028 9933 ft 297 kts 218°
2026-05-09 00:22 26.73088 -79.82454 9935 ft 295 kts 218°
2026-05-09 00:22 26.71485 -79.83901 9941 ft 295 kts 218°
2026-05-09 00:23 26.69884 -79.85344 9942 ft 295 kts 218°
2026-05-09 00:23 26.68284 -79.86780 9943 ft 295 kts 218°
2026-05-09 00:23 26.66681 -79.88225 9940 ft 295 kts 218°
2026-05-09 00:23 26.65107 -79.89647 9941 ft 295 kts 218°
2026-05-09 00:24 26.63509 -79.91084 9938 ft 295 kts 218°
2026-05-09 00:24 26.61909 -79.92525 9939 ft 295 kts 218°
2026-05-09 00:24 26.60310 -79.93968 9943 ft 295 kts 218°
2026-05-09 00:24 26.58711 -79.95409 9940 ft 295 kts 218°
2026-05-09 00:25 26.57112 -79.96843 9940 ft 295 kts 218°
2026-05-09 00:25 26.55512 -79.98278 9936 ft 295 kts 218°
2026-05-09 00:25 26.53911 -79.99710 9942 ft 295 kts 218°
2026-05-09 00:25 26.52308 -80.01145 9942 ft 295 kts 218°
2026-05-09 00:26 26.50709 -80.02578 9939 ft 295 kts 218°
2026-05-09 00:26 26.49112 -80.04015 9938 ft 295 kts 218°
2026-05-09 00:26 26.47514 -80.05451 9935 ft 295 kts 218°
2026-05-09 00:26 26.45934 -80.06864 9940 ft 295 kts 218°
2026-05-09 00:27 26.44333 -80.08296 9937 ft 295 kts 218°
2026-05-09 00:27 26.42731 -80.09723 9937 ft 295 kts 218°
2026-05-09 00:27 26.41127 -80.11154 9939 ft 295 kts 218°
2026-05-09 00:27 26.39526 -80.12582 9938 ft 295 kts 218°
2026-05-09 00:28 26.37928 -80.14014 9936 ft 295 kts 218°
2026-05-09 00:28 26.36322 -80.15450 9943 ft 295 kts 218°
2026-05-09 00:28 26.34720 -80.16879 9937 ft 295 kts 218°
2026-05-09 00:28 26.33114 -80.18308 9942 ft 295 kts 218°
2026-05-09 00:29 26.31517 -80.19734 9943 ft 295 kts 218°
2026-05-09 00:29 26.29916 -80.21169 9940 ft 295 kts 218°
2026-05-09 00:29 26.28316 -80.22601 9942 ft 295 kts 218°
2026-05-09 00:29 26.26714 -80.24035 9933 ft 295 kts 218°
2026-05-09 00:30 26.25127 -80.25454 9943 ft 295 kts 218°
2026-05-09 00:30 26.23528 -80.26883 9940 ft 295 kts 218°
2026-05-09 00:30 26.21926 -80.28314 9942 ft 295 kts 218°
2026-05-09 00:30 26.20324 -80.29741 9940 ft 295 kts 218°
2026-05-09 00:31 26.18732 -80.31159 9819 ft 289 kts 218°
2026-05-09 00:31 26.17187 -80.32532 9692 ft 280 kts 218°
2026-05-09 00:31 26.15687 -80.33862 9537 ft 272 kts 218°
2026-05-09 00:31 26.14196 -80.35186 9149 ft 266 kts 218°
2026-05-09 00:32 26.12831 -80.36400 9024 ft 243 kts 218°
2026-05-09 00:32 26.11545 -80.37543 8671 ft 233 kts 218°
2026-05-09 00:32 26.10288 -80.38661 8176 ft 230 kts 218°
2026-05-09 00:32 26.09037 -80.39772 7597 ft 231 kts 218°
2026-05-09 00:33 26.07791 -80.40878 7147 ft 227 kts 218°
2026-05-09 00:33 26.06972 -80.41603 6871 ft 226 kts 218°
2026-05-09 00:33 26.05746 -80.42690 6455 ft 225 kts 218°
2026-05-09 00:33 26.04523 -80.43772 6094 ft 224 kts 218°
2026-05-09 00:34 26.02912 -80.45196 5666 ft 223 kts 218°
2026-05-09 00:34 26.02092 -80.45921 5476 ft 222 kts 218°
2026-05-09 00:34 26.00891 -80.46970 5236 ft 222 kts 213°
2026-05-09 00:34 25.99476 -80.47586 5019 ft 217 kts 186°
2026-05-09 00:35 25.97996 -80.47445 4521 ft 213 kts 166°
2026-05-09 00:35 25.96563 -80.47096 3927 ft 208 kts 166°
2026-05-09 00:35 25.95165 -80.46760 3395 ft 199 kts 166°
2026-05-09 00:35 25.93877 -80.46453 2979 ft 177 kts 166°
2026-05-09 00:36 25.92748 -80.46184 2937 ft 162 kts 166°
2026-05-09 00:36 25.91691 -80.45931 2933 ft 151 kts 166°
2026-05-09 00:36 25.90682 -80.45691 2932 ft 147 kts 166°
2026-05-09 00:36 25.89689 -80.45455 2942 ft 145 kts 166°
2026-05-09 00:37 25.88702 -80.45217 2932 ft 145 kts 163°
2026-05-09 00:37 25.87790 -80.44773 2945 ft 143 kts 145°
2026-05-09 00:37 25.87073 -80.44022 2848 ft 143 kts 121°
2026-05-09 00:37 25.86549 -80.43092 2636 ft 141 kts 120°
2026-05-09 00:38 25.86045 -80.42161 2445 ft 140 kts 119°
2026-05-09 00:38 25.85555 -80.41228 2253 ft 140 kts 118°
2026-05-09 00:38 25.85070 -80.40291 2066 ft 139 kts 118°
2026-05-09 00:38 25.84590 -80.39356 1876 ft 139 kts 118°
2026-05-09 00:39 25.84113 -80.38425 1697 ft 139 kts 118°
2026-05-09 00:39 25.83638 -80.37495 1512 ft 138 kts 118°
2026-05-09 00:39 25.83170 -80.36579 1336 ft 138 kts 118°
2026-05-09 00:39 25.82697 -80.35652 1149 ft 138 kts 118°
2026-05-09 00:40 25.82225 -80.34727 965 ft 138 kts 118°
2026-05-09 00:40 25.81753 -80.33804 782 ft 137 kts 118°
2026-05-09 00:40 25.81284 -80.32882 599 ft 137 kts 118°
2026-05-09 00:41 25.80355 -80.31045 240 ft 137 kts 118°
2026-05-09 00:41 25.79891 -80.30121 62 ft 137 kts 118°
2026-05-09 00:41 25.79513 -80.29386 21 ft 46 kts 120°
2026-05-09 00:41 25.79407 -80.29138 19 ft 21 kts 91°
2026-05-09 00:42 25.79420 -80.28989 20 ft 20 kts 111°
2026-05-09 00:42 25.79467 -80.28895 20 ft 17 kts
2026-05-09 00:42 25.79592 -80.28897 22 ft 18 kts 359°
2026-05-09 00:42 25.79671 -80.28827 24 ft 13 kts 41°
2026-05-09 00:43 25.79694 -80.28813 23 ft 6 kts 27°